Year,Month,Day,Hour,Minute,Value (Times are PST for windgust in km/hr)
2022,07,15,09,07,16.10
2022,07,15,09,08,22.50
2022,07,15,09,09,11.30
2022,07,15,09,10,4.80
2022,07,15,09,11,11.30
2022,07,15,09,12,6.40
2022,07,15,09,13,3.20
2022,07,15,09,14,4.80
2022,07,15,09,15,6.40
2022,07,15,09,16,4.80
2022,07,15,09,17,3.20
2022,07,15,09,18,8.10
2022,07,15,09,19,4.80
2022,07,15,09,20,6.40
2022,07,15,09,21,9.60
2022,07,15,09,22,9.60
2022,07,15,09,23,9.60
2022,07,15,09,24,12.90
2022,07,15,09,25,9.60
2022,07,15,09,26,8.10
2022,07,15,09,27,8.10
2022,07,15,09,28,6.40
2022,07,15,09,29,6.40
2022,07,15,09,30,4.80
2022,07,15,09,31,6.40
2022,07,15,09,32,6.40
2022,07,15,09,33,6.40
2022,07,15,09,34,4.80
2022,07,15,09,35,6.40
2022,07,15,09,36,4.80
2022,07,15,09,37,8.10
2022,07,15,09,38,3.20
2022,07,15,09,39,1.60
2022,07,15,09,40,1.60
2022,07,15,09,41,4.80
2022,07,15,09,42,6.40
2022,07,15,09,43,4.80
2022,07,15,09,44,3.20
2022,07,15,09,45,6.40
2022,07,15,09,46,4.80
2022,07,15,09,47,4.80
2022,07,15,09,48,4.80
2022,07,15,09,49,6.40
2022,07,15,09,50,4.80
2022,07,15,09,51,4.80
2022,07,15,09,52,8.10
2022,07,15,09,53,3.20
2022,07,15,09,54,6.40
2022,07,15,09,55,6.40
2022,07,15,09,56,3.20
2022,07,15,09,57,6.40
2022,07,15,09,58,3.20
2022,07,15,09,59,1.60
2022,07,15,10,00,8.10
2022,07,15,10,01,6.40
2022,07,15,10,02,6.40
2022,07,15,10,03,8.10
2022,07,15,10,04,11.30
2022,07,15,10,05,6.40
2022,07,15,10,06,9.60
2022,07,15,10,07,8.10
2022,07,15,10,08,11.30
2022,07,15,10,09,9.60
2022,07,15,10,10,8.10
2022,07,15,10,11,11.30
2022,07,15,10,12,4.80
2022,07,15,10,13,9.60
2022,07,15,10,14,11.30
2022,07,15,10,15,11.30
2022,07,15,10,16,9.60
2022,07,15,10,17,9.60
2022,07,15,10,18,11.30
2022,07,15,10,19,9.60
2022,07,15,10,20,6.40
2022,07,15,10,21,4.80
2022,07,15,10,22,8.10
2022,07,15,10,23,4.80
2022,07,15,10,24,6.40
2022,07,15,10,25,8.10
2022,07,15,10,26,4.80
2022,07,15,10,27,3.20
2022,07,15,10,28,6.40
2022,07,15,10,29,8.10
2022,07,15,10,30,9.60
2022,07,15,10,31,4.80
2022,07,15,10,32,11.30
2022,07,15,10,33,6.40
2022,07,15,10,34,8.10
2022,07,15,10,35,6.40
2022,07,15,10,36,6.40
2022,07,15,10,37,9.60
2022,07,15,10,38,11.30
2022,07,15,10,39,9.60
2022,07,15,10,40,6.40
2022,07,15,10,41,4.80
2022,07,15,10,42,4.80
2022,07,15,10,43,4.80
2022,07,15,10,44,3.20
2022,07,15,10,45,8.10
2022,07,15,10,46,4.80
2022,07,15,10,47,3.20
2022,07,15,10,48,3.20
2022,07,15,10,49,4.80
2022,07,15,10,50,4.80
2022,07,15,10,51,3.20
2022,07,15,10,52,4.80
2022,07,15,10,53,6.40
2022,07,15,10,54,4.80
2022,07,15,10,55,8.10
2022,07,15,10,56,4.80
2022,07,15,10,57,4.80
2022,07,15,10,58,4.80
2022,07,15,10,59,3.20
2022,07,15,11,00,3.20
2022,07,15,11,01,11.30
2022,07,15,11,02,11.30
2022,07,15,11,03,9.60
2022,07,15,11,04,9.60
2022,07,15,11,05,4.80
2022,07,15,11,06,6.40
2022,07,15,11,07,9.60
2022,07,15,11,08,3.20
2022,07,15,11,09,1.60
2022,07,15,11,10,1.60
2022,07,15,11,11,1.60
2022,07,15,11,12,3.20
2022,07,15,11,13,3.20
2022,07,15,11,14,3.20
2022,07,15,11,15,4.80
2022,07,15,11,16,6.40
2022,07,15,11,17,8.10
2022,07,15,11,18,6.40
2022,07,15,11,19,1.60
2022,07,15,11,20,1.60
2022,07,15,11,21,3.20
2022,07,15,11,22,4.80
2022,07,15,11,23,3.20
2022,07,15,11,24,3.20
2022,07,15,11,25,12.90
2022,07,15,11,26,9.60
2022,07,15,11,27,11.30
2022,07,15,11,28,6.40
2022,07,15,11,29,3.20
2022,07,15,11,30,8.10
2022,07,15,11,31,8.10
2022,07,15,11,32,12.90
2022,07,15,11,33,12.90
2022,07,15,11,34,12.90
2022,07,15,11,35,14.50
2022,07,15,11,36,11.30
2022,07,15,11,37,3.20
2022,07,15,11,38,11.30
2022,07,15,11,39,16.10
2022,07,15,11,40,20.90
2022,07,15,11,41,8.10
2022,07,15,11,42,11.30
2022,07,15,11,43,6.40
2022,07,15,11,44,6.40
2022,07,15,11,45,11.30
2022,07,15,11,46,12.90
2022,07,15,11,47,14.50
2022,07,15,11,48,6.40
2022,07,15,11,49,6.40
2022,07,15,11,50,4.80
2022,07,15,11,51,11.30
2022,07,15,11,52,8.10
2022,07,15,11,53,9.60
2022,07,15,11,54,9.60
2022,07,15,11,55,14.50
2022,07,15,11,56,9.60
2022,07,15,11,57,6.40
2022,07,15,11,58,6.40
2022,07,15,11,59,4.80
2022,07,15,12,00,6.40
2022,07,15,12,01,6.40
2022,07,15,12,02,4.80
2022,07,15,12,03,8.10
2022,07,15,12,04,9.60
2022,07,15,12,05,9.60
2022,07,15,12,06,9.60
2022,07,15,12,07,4.80
2022,07,15,12,08,9.60
2022,07,15,12,09,8.10
2022,07,15,12,10,11.30
2022,07,15,12,11,3.20
2022,07,15,12,12,3.20
2022,07,15,12,13,4.80
2022,07,15,12,14,6.40
2022,07,15,12,15,4.80
2022,07,15,12,16,4.80
2022,07,15,12,17,6.40
2022,07,15,12,18,6.40
2022,07,15,12,19,4.80
2022,07,15,12,20,8.10
2022,07,15,12,21,6.40
2022,07,15,12,22,11.30
2022,07,15,12,23,6.40
2022,07,15,12,24,6.40
2022,07,15,12,25,4.80
2022,07,15,12,26,8.10
2022,07,15,12,27,4.80
2022,07,15,12,28,4.80
2022,07,15,12,29,1.60
2022,07,15,12,30,4.80
2022,07,15,12,31,4.80
2022,07,15,12,32,3.20
2022,07,15,12,33,3.20
2022,07,15,12,34,6.40
2022,07,15,12,35,3.20
2022,07,15,12,36,4.80
2022,07,15,12,37,1.60
2022,07,15,12,38,3.20
2022,07,15,12,39,6.40
2022,07,15,12,40,6.40
2022,07,15,12,41,8.10
2022,07,15,12,42,4.80
2022,07,15,12,43,4.80
2022,07,15,12,44,4.80
2022,07,15,12,45,8.10
2022,07,15,12,46,8.10
2022,07,15,12,47,3.20
2022,07,15,12,48,6.40
2022,07,15,12,49,6.40
2022,07,15,12,50,9.60
2022,07,15,12,51,4.80
2022,07,15,12,52,1.60
2022,07,15,12,53,3.20
2022,07,15,12,54,3.20
2022,07,15,12,55,4.80
2022,07,15,12,56,3.20
2022,07,15,12,57,6.40
2022,07,15,12,58,1.60
2022,07,15,12,59,3.20
2022,07,15,13,00,3.20
2022,07,15,13,01,1.60
2022,07,15,13,02,6.40
2022,07,15,13,03,1.60
2022,07,15,13,04,3.20
2022,07,15,13,05,1.60
2022,07,15,13,06,3.20
2022,07,15,13,07,1.60
2022,07,15,13,08,3.20
2022,07,15,13,09,3.20
2022,07,15,13,12,1.60
2022,07,15,13,13,3.20
2022,07,15,13,14,1.60
2022,07,15,13,16,1.60
2022,07,15,13,17,4.80
2022,07,15,13,18,4.80
2022,07,15,13,19,4.80
2022,07,15,13,20,3.20
2022,07,15,13,21,1.60
2022,07,15,13,22,6.40
2022,07,15,13,23,6.40
2022,07,15,13,24,3.20
2022,07,15,13,25,1.60
2022,07,15,13,26,1.60
2022,07,15,13,27,3.20
2022,07,15,13,28,6.40
2022,07,15,13,29,4.80
2022,07,15,13,30,3.20
2022,07,15,13,31,3.20
2022,07,15,13,32,1.60
2022,07,15,13,34,1.60
2022,07,15,13,35,1.60
2022,07,15,13,36,6.40
2022,07,15,13,37,4.80
2022,07,15,13,38,1.60
2022,07,15,13,39,3.20
2022,07,15,13,40,3.20
2022,07,15,13,41,1.60
2022,07,15,13,42,3.20
2022,07,15,13,43,1.60
2022,07,15,13,46,3.20
2022,07,15,13,47,3.20
2022,07,15,13,48,3.20
2022,07,15,13,49,1.60
2022,07,15,13,50,1.60
2022,07,15,13,51,1.60
2022,07,15,13,52,3.20
2022,07,15,13,53,4.80
2022,07,15,13,55,3.20
2022,07,15,13,56,3.20
2022,07,15,13,57,1.60
2022,07,15,13,58,1.60
2022,07,15,13,59,1.60
2022,07,15,14,00,1.60
2022,07,15,14,01,1.60
2022,07,15,14,04,1.60
2022,07,15,14,05,3.20
2022,07,15,14,06,1.60
2022,07,15,14,07,1.60
2022,07,15,14,08,1.60
2022,07,15,14,09,1.60
2022,07,15,14,10,1.60
2022,07,15,14,11,3.20
2022,07,15,14,12,4.80
2022,07,15,14,13,4.80
2022,07,15,14,14,4.80
2022,07,15,14,15,4.80
2022,07,15,14,16,4.80
2022,07,15,14,17,4.80
2022,07,15,14,18,3.20
2022,07,15,14,19,3.20
2022,07,15,14,20,1.60
2022,07,15,14,26,1.60
2022,07,15,14,27,3.20
2022,07,15,14,28,3.20
2022,07,15,14,29,1.60
2022,07,15,14,30,1.60
2022,07,15,14,35,1.60
2022,07,15,14,44,1.60
2022,07,15,14,45,1.60
2022,07,15,14,50,1.60
2022,07,15,14,54,3.20
2022,07,15,14,55,3.20
2022,07,15,14,56,1.60
2022,07,15,14,58,3.20
2022,07,15,14,59,3.20
2022,07,15,15,00,3.20
2022,07,15,15,01,4.80
2022,07,15,15,02,3.20
2022,07,15,15,03,3.20
2022,07,15,15,05,1.60
2022,07,15,15,06,1.60
2022,07,15,15,08,1.60
2022,07,15,15,12,3.20
2022,07,15,15,13,1.60
2022,07,15,15,14,1.60
2022,07,15,15,15,3.20
2022,07,15,15,19,1.60
2022,07,15,15,20,1.60
2022,07,15,15,21,3.20
2022,07,15,15,22,3.20
2022,07,15,15,25,1.60
2022,07,15,15,31,1.60
2022,07,15,15,43,1.60
2022,07,15,15,45,1.60
2022,07,15,15,51,1.60
2022,07,15,15,52,3.20
2022,07,15,15,53,3.20
2022,07,15,15,54,1.60
2022,07,15,15,56,1.60
2022,07,15,15,57,4.80
2022,07,15,15,58,1.60
2022,07,15,15,59,1.60
2022,07,15,16,03,1.60
2022,07,15,16,04,1.60
2022,07,15,16,05,3.20
2022,07,15,16,06,1.60
2022,07,15,16,08,1.60
2022,07,15,16,09,1.60
2022,07,15,16,10,1.60
2022,07,15,16,11,1.60
2022,07,15,16,16,1.60
2022,07,15,16,17,1.60
2022,07,15,16,18,1.60
2022,07,15,16,19,1.60
2022,07,15,16,20,1.60
2022,07,15,16,34,1.60
2022,07,15,16,35,1.60
2022,07,15,16,42,1.60
2022,07,15,16,44,1.60
2022,07,15,16,45,1.60
2022,07,15,16,58,1.60
2022,07,15,17,00,1.60
2022,07,15,17,01,3.20
2022,07,15,17,02,1.60
2022,07,15,17,12,1.60
2022,07,15,17,20,1.60
2022,07,15,17,28,1.60
2022,07,15,18,03,1.60
2022,07,15,18,04,3.20
2022,07,15,18,05,1.60
2022,07,15,18,10,1.60
2022,07,15,18,14,1.60
